4XDZD LLHA-LLER

Flight info

Callsign 4XDZD
Flight time 1h 38m
Altitude 4000
Route GALIM DAROM HOTRM BOREN FRDIS SDTYM OLGAH PELEG VINGT SFAIM APOLN ARENA HTZUK RIDNG ROKCH PARDS LLBG MRISN NTAIM BOVED NAGID YAVNE ZASHD NMASD ZDAFA NITZA ASKLN GVARM BHAIL BKAMA ZLHAV GORAL NCITY OMMER OHLIM HOVAV NEGEV TLLIM BOKER OVDAT RUHOT MESAR ZZHOR BMNUH YAHEL KTORA YOTVT SAMAR BRORA EILAT BRORA
Aircraft BE36/L-VGD/A

Departure

Time 2026-04-26 10:40
Airport Uri Michaeli Haifa International Airport (LLHA)

Arrival

Time 2026-04-26 12:19
Airport Ramon International Airport (LLER)
Time Latitude Longitude Altitude Speed Heading
2026-04-26 10:23 32.81210 35.04201 20 ft 0 kts 250°
2026-04-26 10:35 32.81199 35.04183 19 ft 9 kts 187°
2026-04-26 10:35 32.81159 35.04211 20 ft 3 kts 124°
2026-04-26 10:36 32.81159 35.04212 20 ft 0 kts 124°
2026-04-26 10:36 32.81158 35.04234 20 ft 0 kts 80°
2026-04-26 10:38 32.81159 35.04239 20 ft 7 kts 83°
2026-04-26 10:38 32.81116 35.04333 21 ft 23 kts 159°
2026-04-26 10:39 32.80955 35.04392 22 ft 13 kts 180°
2026-04-26 10:39 32.80959 35.04402 22 ft 7 kts 327°
2026-04-26 10:39 32.80964 35.04399 22 ft 0 kts 335°
2026-04-26 10:39 32.80988 35.04387 22 ft 28 kts 339°
2026-04-26 10:40 32.81404 35.04189 169 ft 80 kts 337°
2026-04-26 10:40 32.81872 35.03766 583 ft 94 kts 320°
2026-04-26 10:40 32.82368 35.03235 1019 ft 108 kts 314°
2026-04-26 10:40 32.82774 35.02367 1288 ft 135 kts 291°
2026-04-26 10:41 32.83036 35.01216 1479 ft 150 kts 279°
2026-04-26 10:41 32.83093 35.00024 1967 ft 147 kts 276°
2026-04-26 10:41 32.83148 34.98744 2122 ft 165 kts 275°
2026-04-26 10:41 32.83551 34.97379 2081 ft 183 kts 290°
2026-04-26 10:42 32.83696 34.95889 2100 ft 181 kts 270°
2026-04-26 10:42 32.83269 34.94525 2095 ft 181 kts 228°
2026-04-26 10:42 32.82133 34.93944 2091 ft 184 kts 182°
2026-04-26 10:42 32.80893 34.94307 2096 ft 185 kts 161°
2026-04-26 10:43 32.79692 34.94855 2099 ft 185 kts 160°
2026-04-26 10:43 32.78493 34.95413 2101 ft 185 kts 160°
2026-04-26 10:43 32.77269 34.95970 2095 ft 191 kts 160°
2026-04-26 10:43 32.76037 34.96551 2094 ft 190 kts 160°
2026-04-26 10:44 32.74757 34.96743 2088 ft 186 kts 186°
2026-04-26 10:44 32.73475 34.96622 2100 ft 184 kts 186°
2026-04-26 10:44 32.72201 34.96489 2099 ft 184 kts 188°
2026-04-26 10:44 32.70945 34.96352 2096 ft 179 kts 187°
2026-04-26 10:45 32.69717 34.96196 2093 ft 177 kts 188°
2026-04-26 10:45 32.68502 34.96098 2087 ft 175 kts 184°
2026-04-26 10:45 32.67275 34.95970 2028 ft 179 kts 188°
2026-04-26 10:45 32.66034 34.95798 1980 ft 180 kts 188°
2026-04-26 10:46 32.64783 34.95638 1925 ft 181 kts 188°
2026-04-26 10:46 32.63574 34.95490 2014 ft 173 kts 189°
2026-04-26 10:46 32.62378 34.95370 2009 ft 172 kts 187°
2026-04-26 10:46 32.61183 34.95220 2021 ft 172 kts 189°
2026-04-26 10:47 32.60024 34.94953 2012 ft 169 kts 202°
2026-04-26 10:47 32.58938 34.94412 2008 ft 170 kts 206°
2026-04-26 10:47 32.57865 34.93807 2000 ft 170 kts 208°
2026-04-26 10:47 32.56810 34.93199 2011 ft 169 kts 208°
2026-04-26 10:48 32.55759 34.92581 2003 ft 169 kts 208°
2026-04-26 10:48 32.54718 34.91966 2008 ft 165 kts 209°
2026-04-26 10:48 32.53684 34.91370 2014 ft 168 kts 207°
2026-04-26 10:48 32.52624 34.90771 2018 ft 171 kts 207°
2026-04-26 10:49 32.51590 34.90184 2214 ft 164 kts 207°
2026-04-26 10:49 32.50522 34.89566 1982 ft 176 kts 208°
2026-04-26 10:49 32.49409 34.88916 1726 ft 179 kts 208°
2026-04-26 10:49 32.48302 34.88258 1475 ft 175 kts 208°
2026-04-26 10:50 32.47157 34.87790 1221 ft 174 kts 195°
2026-04-26 10:50 32.46376 34.87578 1053 ft 174 kts 194°
2026-04-26 10:50 32.44803 34.87164 717 ft 173 kts 194°
2026-04-26 10:50 32.43675 34.86868 790 ft 154 kts 194°
2026-04-26 10:51 32.42690 34.86620 989 ft 139 kts 194°
2026-04-26 10:51 32.40702 34.86129 817 ft 150 kts 194°
2026-04-26 10:51 32.39704 34.85883 815 ft 147 kts 194°
2026-04-26 10:52 32.38695 34.85636 815 ft 146 kts 194°
2026-04-26 10:52 32.37714 34.85396 815 ft 146 kts 194°
2026-04-26 10:52 32.36714 34.85149 815 ft 147 kts 194°
2026-04-26 10:52 32.35706 34.84897 818 ft 149 kts 194°
2026-04-26 10:53 32.34682 34.84642 810 ft 152 kts 194°
2026-04-26 10:53 32.33645 34.84388 809 ft 152 kts 194°
2026-04-26 10:53 32.32606 34.84133 809 ft 152 kts 194°
2026-04-26 10:54 32.30529 34.83623 808 ft 152 kts 194°
2026-04-26 10:54 32.29495 34.83370 809 ft 152 kts 194°
2026-04-26 10:54 32.28459 34.83122 809 ft 152 kts 194°
2026-04-26 10:54 32.27425 34.82875 809 ft 151 kts 194°
2026-04-26 10:55 32.26395 34.82627 809 ft 151 kts 194°
2026-04-26 10:55 32.25366 34.82378 808 ft 151 kts 194°
2026-04-26 10:55 32.24340 34.82131 809 ft 151 kts 194°
2026-04-26 10:55 32.23670 34.81932 808 ft 149 kts 201°
2026-04-26 10:56 32.22358 34.81395 808 ft 149 kts 201°
2026-04-26 10:56 32.21373 34.81006 808 ft 149 kts 201°
2026-04-26 10:56 32.20390 34.80616 809 ft 149 kts 201°
2026-04-26 10:56 32.19403 34.80224 809 ft 150 kts 201°
2026-04-26 10:57 32.18418 34.79834 809 ft 149 kts 201°
2026-04-26 10:57 32.17436 34.79447 809 ft 149 kts 201°
2026-04-26 10:57 32.16455 34.79059 809 ft 149 kts 201°
2026-04-26 10:57 32.15474 34.78674 809 ft 149 kts 201°
2026-04-26 10:58 32.14501 34.78292 888 ft 143 kts 201°
2026-04-26 10:58 32.13595 34.77942 1125 ft 132 kts 201°
2026-04-26 10:58 32.12709 34.77609 1191 ft 137 kts 201°
2026-04-26 10:58 32.11762 34.77395 1192 ft 145 kts 174°
2026-04-26 10:59 32.10968 34.78146 1195 ft 159 kts 117°
2026-04-26 10:59 32.10674 34.79427 1199 ft 163 kts 106°
2026-04-26 10:59 32.10411 34.80728 1207 ft 165 kts 106°
2026-04-26 10:59 32.10151 34.82041 1208 ft 162 kts 106°
2026-04-26 11:00 32.09895 34.83343 1207 ft 163 kts 105°
2026-04-26 11:00 32.09684 34.84210 1193 ft 162 kts 120°
2026-04-26 11:00 32.08844 34.84962 1187 ft 153 kts 174°
2026-04-26 11:00 32.07796 34.85049 1191 ft 153 kts 168°
2026-04-26 11:01 32.06798 34.85490 1195 ft 154 kts 160°
2026-04-26 11:01 32.05817 34.85998 1198 ft 155 kts 159°
2026-04-26 11:01 32.05018 34.86847 1195 ft 160 kts 128°
2026-04-26 11:01 32.04389 34.87933 1196 ft 160 kts 128°
2026-04-26 11:02 32.03766 34.88993 1197 ft 153 kts 128°
2026-04-26 11:02 32.03201 34.89973 1173 ft 137 kts 128°
2026-04-26 11:02 32.02707 34.90851 1178 ft 124 kts 128°
2026-04-26 11:02 32.02252 34.91672 1177 ft 115 kts 128°
2026-04-26 11:03 32.01687 34.92278 1040 ft 115 kts 164°
2026-04-26 11:03 32.00909 34.92250 925 ft 109 kts 204°
2026-04-26 11:03 32.00301 34.91767 710 ft 104 kts 218°
2026-04-26 11:03 31.99834 34.91261 511 ft 82 kts 243°
2026-04-26 11:04 31.99738 34.90576 376 ft 88 kts 270°
2026-04-26 11:04 31.99834 34.89870 250 ft 85 kts 285°
2026-04-26 11:04 32.00084 34.89272 122 ft 77 kts 297°
2026-04-26 11:04 32.00321 34.88799 116 ft 59 kts 302°
2026-04-26 11:05 32.00658 34.88178 216 ft 106 kts 307°
2026-04-26 11:05 32.01171 34.87536 682 ft 109 kts 310°
2026-04-26 11:05 32.01705 34.86839 1102 ft 108 kts 299°
2026-04-26 11:05 32.02031 34.86021 1406 ft 123 kts 287°
2026-04-26 11:06 32.02436 34.85231 1918 ft 127 kts 323°
2026-04-26 11:06 32.03438 34.85162 1837 ft 166 kts 20°
2026-04-26 11:06 32.04454 34.85907 1751 ft 177 kts 42°
2026-04-26 11:06 32.05190 34.87097 1646 ft 181 kts 62°
2026-04-26 11:07 32.05340 34.88546 1533 ft 179 kts 108°
2026-04-26 11:07 32.04838 34.89863 1424 ft 179 kts 120°
2026-04-26 11:07 32.04302 34.91122 1298 ft 155 kts 120°
2026-04-26 11:07 32.03865 34.92162 1188 ft 128 kts 120°
2026-04-26 11:08 32.03517 34.93018 1187 ft 109 kts 120°
2026-04-26 11:08 32.03205 34.93818 1189 ft 106 kts 120°
2026-04-26 11:08 32.02866 34.94674 1198 ft 124 kts 120°
2026-04-26 11:08 32.02481 34.95611 1211 ft 126 kts 120°
2026-04-26 11:09 32.02008 34.96394 1191 ft 111 kts 159°
2026-04-26 11:09 32.01333 34.96269 1194 ft 99 kts 212°
2026-04-26 11:09 32.00743 34.95901 1189 ft 91 kts 209°
2026-04-26 11:09 32.00198 34.95568 1182 ft 85 kts 209°
2026-04-26 11:10 31.99843 34.94999 1049 ft 94 kts 244°
2026-04-26 11:10 31.99536 34.94306 957 ft 97 kts 241°
2026-04-26 11:10 31.99241 34.93611 929 ft 96 kts 246°
2026-04-26 11:10 31.99049 34.92894 795 ft 83 kts 256°
2026-04-26 11:11 31.99010 34.92276 593 ft 73 kts 268°
2026-04-26 11:11 31.99074 34.91655 519 ft 79 kts 278°
2026-04-26 11:11 31.99263 34.91000 428 ft 87 kts 290°
2026-04-26 11:11 31.99515 34.90351 354 ft 84 kts 296°
2026-04-26 11:12 31.99797 34.89834 171 ft 71 kts 296°
2026-04-26 11:12 32.00031 34.89360 116 ft 63 kts 295°
2026-04-26 11:12 32.00248 34.88918 114 ft 64 kts 304°
2026-04-26 11:12 32.00464 34.88529 115 ft 40 kts 303°
2026-04-26 11:13 32.00541 34.88385 115 ft 16 kts 300°
2026-04-26 11:13 32.00609 34.88241 115 ft 23 kts 302°
2026-04-26 11:13 32.00673 34.88113 114 ft 14 kts 303°
2026-04-26 11:13 32.00724 34.88017 114 ft 14 kts 304°
2026-04-26 11:14 32.00872 34.87732 143 ft 75 kts 296°
2026-04-26 11:14 32.01112 34.87174 600 ft 72 kts 286°
2026-04-26 11:14 32.01234 34.86524 903 ft 93 kts 253°
2026-04-26 11:14 32.00701 34.86033 1229 ft 109 kts 207°
2026-04-26 11:15 31.99945 34.85547 1269 ft 139 kts 207°
2026-04-26 11:15 31.98909 34.85558 1206 ft 170 kts 158°
2026-04-26 11:15 31.98003 34.86555 1212 ft 186 kts 132°
2026-04-26 11:15 31.97235 34.87818 1207 ft 193 kts 124°
2026-04-26 11:16 31.96546 34.89199 1200 ft 197 kts 123°
2026-04-26 11:16 31.95908 34.90491 1190 ft 160 kts 123°
2026-04-26 11:16 31.95419 34.91580 1179 ft 147 kts 110°
2026-04-26 11:16 31.95622 34.92867 1184 ft 180 kts 57°
2026-04-26 11:17 31.96691 34.93573 1136 ft 191 kts 349°
2026-04-26 11:17 31.97721 34.92634 934 ft 197 kts 309°
2026-04-26 11:17 31.98683 34.91432 579 ft 209 kts 311°
2026-04-26 11:17 31.99605 34.90102 266 ft 210 kts 304°
2026-04-26 11:18 32.00392 34.88679 139 ft 203 kts 299°
2026-04-26 11:18 32.01106 34.87277 141 ft 196 kts 300°
2026-04-26 11:18 32.01220 34.85940 794 ft 159 kts 253°
2026-04-26 11:18 32.00836 34.84679 887 ft 169 kts 246°
2026-04-26 11:19 32.00382 34.83372 958 ft 174 kts 248°
2026-04-26 11:19 31.99970 34.82072 1036 ft 162 kts 249°
2026-04-26 11:19 31.99603 34.80879 1108 ft 150 kts 249°
2026-04-26 11:19 31.99114 34.79836 1178 ft 144 kts 227°
2026-04-26 11:20 31.98227 34.79319 1191 ft 146 kts 197°
2026-04-26 11:20 31.97574 34.79134 1193 ft 146 kts 196°
2026-04-26 11:20 31.96274 34.78763 1189 ft 142 kts 196°
2026-04-26 11:20 31.95287 34.78481 884 ft 159 kts 195°
2026-04-26 11:21 31.94217 34.78167 804 ft 154 kts 196°
2026-04-26 11:21 31.93198 34.77867 808 ft 148 kts 196°
2026-04-26 11:21 31.92212 34.77541 807 ft 147 kts 200°
2026-04-26 11:21 31.91247 34.77167 803 ft 145 kts 200°
2026-04-26 11:22 31.90305 34.76749 800 ft 145 kts 206°
2026-04-26 11:22 31.89421 34.76201 799 ft 142 kts 210°
2026-04-26 11:22 31.88542 34.75677 789 ft 141 kts 198°
2026-04-26 11:22 31.87565 34.75560 791 ft 141 kts 186°
2026-04-26 11:23 31.86633 34.75274 793 ft 138 kts 204°
2026-04-26 11:23 31.85848 34.74643 797 ft 137 kts 222°
2026-04-26 11:23 31.85140 34.73894 796 ft 137 kts 222°
2026-04-26 11:23 31.84426 34.73156 797 ft 139 kts 222°
2026-04-26 11:24 31.83745 34.72357 797 ft 138 kts 228°
2026-04-26 11:24 31.83100 34.71503 799 ft 138 kts 229°
2026-04-26 11:24 31.82774 34.70482 796 ft 141 kts 268°
2026-04-26 11:24 31.82839 34.69310 796 ft 142 kts 270°
2026-04-26 11:25 31.82901 34.68152 802 ft 142 kts 270°
2026-04-26 11:25 31.82970 34.66988 806 ft 144 kts 271°
2026-04-26 11:25 31.83044 34.65813 810 ft 144 kts 271°
2026-04-26 11:25 31.83117 34.64629 810 ft 145 kts 271°
2026-04-26 11:26 31.83189 34.63443 801 ft 145 kts 271°
2026-04-26 11:26 31.83208 34.62274 795 ft 141 kts 254°
2026-04-26 11:26 31.82585 34.61463 795 ft 138 kts 209°
2026-04-26 11:26 31.81736 34.60943 797 ft 137 kts 209°
2026-04-26 11:27 31.80894 34.60418 798 ft 137 kts 209°
2026-04-26 11:27 31.80050 34.59896 799 ft 137 kts 209°
2026-04-26 11:27 31.79202 34.59374 799 ft 138 kts 209°
2026-04-26 11:27 31.78357 34.58855 800 ft 137 kts 209°
2026-04-26 11:28 31.77510 34.58335 800 ft 137 kts 209°
2026-04-26 11:28 31.76665 34.57812 799 ft 138 kts 209°
2026-04-26 11:28 31.75817 34.57287 799 ft 138 kts 209°
2026-04-26 11:28 31.74936 34.56746 806 ft 148 kts 208°
2026-04-26 11:29 31.74006 34.56167 810 ft 154 kts 208°
2026-04-26 11:29 31.73048 34.55570 810 ft 157 kts 209°
2026-04-26 11:29 31.72073 34.54967 809 ft 159 kts 208°
2026-04-26 11:29 31.71119 34.54371 809 ft 160 kts 209°
2026-04-26 11:30 31.70116 34.53743 912 ft 152 kts 209°
2026-04-26 11:30 31.69514 34.53454 1269 ft 135 kts 190°
2026-04-26 11:30 31.68381 34.54105 1496 ft 150 kts 146°
2026-04-26 11:30 31.67491 34.54818 1505 ft 159 kts 153°
2026-04-26 11:31 31.66536 34.55489 1501 ft 164 kts 153°
2026-04-26 11:31 31.65548 34.56187 1508 ft 169 kts 153°
2026-04-26 11:31 31.64533 34.56896 1509 ft 170 kts 153°
2026-04-26 11:31 31.63506 34.57608 1502 ft 171 kts 153°
2026-04-26 11:32 31.62481 34.58316 1504 ft 172 kts 153°
2026-04-26 11:32 31.61458 34.59026 1507 ft 171 kts 153°
2026-04-26 11:32 31.60434 34.59740 1505 ft 172 kts 153°
2026-04-26 11:32 31.59411 34.60454 1508 ft 170 kts 153°
2026-04-26 11:33 31.58480 34.61137 2036 ft 142 kts 145°
2026-04-26 11:33 31.57828 34.61925 2480 ft 137 kts 137°
2026-04-26 11:33 31.57139 34.62818 2493 ft 157 kts 137°
2026-04-26 11:33 31.56384 34.63789 2501 ft 164 kts 137°
2026-04-26 11:34 31.55596 34.64784 2514 ft 168 kts 137°
2026-04-26 11:34 31.54787 34.65809 2509 ft 173 kts 137°
2026-04-26 11:34 31.53968 34.66843 2510 ft 175 kts 136°
2026-04-26 11:34 31.53123 34.67898 2510 ft 179 kts 137°
2026-04-26 11:35 31.52266 34.68967 2505 ft 181 kts 137°
2026-04-26 11:35 31.51402 34.70050 2504 ft 182 kts 137°
2026-04-26 11:35 31.50535 34.71131 2510 ft 183 kts 137°
2026-04-26 11:35 31.49956 34.71850 2507 ft 183 kts 137°
2026-04-26 11:36 31.48786 34.73300 2505 ft 184 kts 137°
2026-04-26 11:36 31.47890 34.74355 2506 ft 182 kts 140°
2026-04-26 11:36 31.46978 34.75377 2506 ft 181 kts 140°
2026-04-26 11:36 31.46064 34.76401 2498 ft 182 kts 140°
2026-04-26 11:37 31.45017 34.77175 2486 ft 177 kts 160°
2026-04-26 11:37 31.43895 34.77742 2493 ft 176 kts 160°
2026-04-26 11:37 31.42765 34.78315 2494 ft 177 kts 159°
2026-04-26 11:37 31.41620 34.78833 2490 ft 176 kts 166°
2026-04-26 11:38 31.40429 34.79146 2492 ft 176 kts 173°
2026-04-26 11:38 31.39223 34.79364 2493 ft 176 kts 175°
2026-04-26 11:38 31.38028 34.79459 2723 ft 160 kts 180°
2026-04-26 11:38 31.36956 34.79522 2983 ft 159 kts 180°
2026-04-26 11:39 31.35811 34.79582 2985 ft 169 kts 180°
2026-04-26 11:39 31.34628 34.79639 2985 ft 170 kts 180°
2026-04-26 11:39 31.33429 34.79650 2996 ft 175 kts 184°
2026-04-26 11:39 31.32201 34.79580 2998 ft 178 kts 185°
2026-04-26 11:40 31.30963 34.79549 2996 ft 180 kts 174°
2026-04-26 11:40 31.29900 34.80314 2988 ft 189 kts 129°
2026-04-26 11:40 31.29412 34.81753 2989 ft 191 kts 119°
2026-04-26 11:40 31.28454 34.82729 2987 ft 183 kts 165°
2026-04-26 11:41 31.27631 34.82879 2998 ft 180 kts 178°
2026-04-26 11:42 31.19299 34.81198 3007 ft 180 kts 213°
2026-04-26 11:43 31.18165 34.80611 3002 ft 181 kts 189°
2026-04-26 11:43 31.16911 34.80544 3006 ft 181 kts 183°
2026-04-26 11:43 31.15652 34.80519 3006 ft 180 kts 183°
2026-04-26 11:43 31.14401 34.80502 3006 ft 180 kts 179°
2026-04-26 11:44 31.13187 34.80896 2998 ft 184 kts 160°
2026-04-26 11:44 31.12017 34.81509 3004 ft 184 kts 158°
2026-04-26 11:44 31.10850 34.82143 3006 ft 185 kts 158°
2026-04-26 11:44 31.09684 34.82777 3005 ft 186 kts 158°
2026-04-26 11:45 31.08510 34.83409 3006 ft 185 kts 158°
2026-04-26 11:45 31.07344 34.84043 3006 ft 185 kts 157°
2026-04-26 11:45 31.06182 34.84666 3001 ft 183 kts 157°
2026-04-26 11:45 31.05067 34.85404 3002 ft 184 kts 151°
2026-04-26 11:46 31.04063 34.86138 3467 ft 165 kts 149°
2026-04-26 11:46 31.03083 34.86907 3490 ft 176 kts 149°
2026-04-26 11:46 31.02053 34.87713 3482 ft 180 kts 149°
2026-04-26 11:46 31.01003 34.88536 3497 ft 184 kts 149°
2026-04-26 11:47 30.99930 34.89373 3494 ft 186 kts 148°
2026-04-26 11:47 30.98814 34.90123 3488 ft 185 kts 166°
2026-04-26 11:47 30.97585 34.89942 3483 ft 181 kts 211°
2026-04-26 11:47 30.96613 34.89011 3499 ft 181 kts 219°
2026-04-26 11:48 30.95633 34.88091 3499 ft 182 kts 219°
2026-04-26 11:48 30.94644 34.87166 3504 ft 182 kts 219°
2026-04-26 11:48 30.93656 34.86234 3498 ft 184 kts 219°
2026-04-26 11:48 30.92676 34.85319 3489 ft 178 kts 219°
2026-04-26 11:49 30.91722 34.84422 3489 ft 175 kts 219°
2026-04-26 11:49 30.90781 34.83535 3487 ft 174 kts 219°
2026-04-26 11:49 30.89845 34.82632 3489 ft 175 kts 221°
2026-04-26 11:49 30.88947 34.81696 3498 ft 173 kts 222°
2026-04-26 11:50 30.88050 34.80751 3489 ft 174 kts 221°
2026-04-26 11:50 30.87145 34.79824 3496 ft 174 kts 214°
2026-04-26 11:50 30.85983 34.79507 3499 ft 175 kts 180°
2026-04-26 11:50 30.84771 34.79590 3509 ft 175 kts 178°
2026-04-26 11:51 30.83549 34.79684 3503 ft 176 kts 178°
2026-04-26 11:51 30.82327 34.79784 3508 ft 176 kts 178°
2026-04-26 11:51 30.81106 34.79877 3500 ft 175 kts 178°
2026-04-26 11:51 30.79886 34.79961 3504 ft 178 kts 178°
2026-04-26 11:52 30.78644 34.80063 3510 ft 180 kts 178°
2026-04-26 11:52 30.77398 34.80164 3505 ft 178 kts 177°
2026-04-26 11:52 30.76159 34.80260 3494 ft 178 kts 178°
2026-04-26 11:52 30.74922 34.80349 3501 ft 177 kts 178°
2026-04-26 11:53 30.73688 34.80437 3491 ft 178 kts 178°
2026-04-26 11:53 30.72448 34.80525 3493 ft 178 kts 178°
2026-04-26 11:53 30.71210 34.80615 3493 ft 178 kts 178°
2026-04-26 11:54 30.68844 34.80786 3963 ft 156 kts 178°
2026-04-26 11:54 30.67718 34.80874 3985 ft 166 kts 178°
2026-04-26 11:54 30.66544 34.80957 3990 ft 172 kts 178°
2026-04-26 11:54 30.65297 34.81155 3564 ft 196 kts 160°
2026-04-26 11:55 30.64138 34.81972 3501 ft 192 kts 146°
2026-04-26 11:55 30.63069 34.82870 3484 ft 188 kts 146°
2026-04-26 11:55 30.62029 34.83757 3492 ft 184 kts 146°
2026-04-26 11:55 30.60997 34.84645 3484 ft 184 kts 146°
2026-04-26 11:56 30.59971 34.85528 3486 ft 184 kts 146°
2026-04-26 11:56 30.58955 34.86402 3478 ft 184 kts 146°
2026-04-26 11:56 30.57932 34.87279 3478 ft 182 kts 146°
2026-04-26 11:56 30.56913 34.88153 3474 ft 182 kts 146°
2026-04-26 11:57 30.55899 34.89028 3475 ft 181 kts 146°
2026-04-26 11:57 30.54887 34.89895 3479 ft 181 kts 146°
2026-04-26 11:57 30.53877 34.90763 3477 ft 180 kts 146°
2026-04-26 11:57 30.52873 34.91627 3397 ft 183 kts 145°
2026-04-26 11:58 30.51778 34.92562 2989 ft 199 kts 146°
2026-04-26 11:58 30.50689 34.93480 2988 ft 190 kts 146°
2026-04-26 11:58 30.49494 34.93977 2971 ft 183 kts 177°
2026-04-26 11:58 30.48228 34.94087 2972 ft 182 kts 174°
2026-04-26 11:59 30.46984 34.94303 2968 ft 178 kts 173°
2026-04-26 11:59 30.45765 34.94525 2957 ft 176 kts 172°
2026-04-26 11:59 30.44548 34.94745 2969 ft 178 kts 173°
2026-04-26 11:59 30.43323 34.94969 2963 ft 178 kts 172°
2026-04-26 12:00 30.42113 34.95187 2967 ft 175 kts 173°
2026-04-26 12:00 30.40909 34.95400 2969 ft 175 kts 173°
2026-04-26 12:00 30.39698 34.95619 2973 ft 177 kts 172°
2026-04-26 12:00 30.38478 34.95842 2970 ft 179 kts 172°
2026-04-26 12:01 30.37250 34.96060 2968 ft 178 kts 173°
2026-04-26 12:01 30.36028 34.96283 2969 ft 178 kts 172°
2026-04-26 12:01 30.34808 34.96503 2972 ft 178 kts 173°
2026-04-26 12:01 30.33582 34.96722 2967 ft 178 kts 173°
2026-04-26 12:02 30.32368 34.96941 2953 ft 174 kts 173°
2026-04-26 12:02 30.31160 34.97161 2947 ft 175 kts 173°
2026-04-26 12:02 30.29966 34.97430 2948 ft 176 kts 159°
2026-04-26 12:02 30.29113 34.98433 2949 ft 181 kts 120°
2026-04-26 12:03 30.28595 34.99755 2949 ft 181 kts 113°
2026-04-26 12:03 30.28178 35.01127 2959 ft 181 kts 111°
2026-04-26 12:03 30.27772 35.02513 2957 ft 182 kts 110°
2026-04-26 12:03 30.27601 35.03962 2953 ft 183 kts 92°
2026-04-26 12:04 30.27608 35.05433 2952 ft 183 kts 90°
2026-04-26 12:04 30.27708 35.06906 2951 ft 184 kts 85°
2026-04-26 12:04 30.27835 35.08376 2955 ft 183 kts 85°
2026-04-26 12:04 30.27962 35.09848 2960 ft 184 kts 86°
2026-04-26 12:05 30.27854 35.11282 2938 ft 179 kts 118°
2026-04-26 12:05 30.26938 35.12182 2945 ft 177 kts 165°
2026-04-26 12:05 30.25718 35.12377 2946 ft 178 kts 176°
2026-04-26 12:05 30.24492 35.12498 2958 ft 176 kts 176°
2026-04-26 12:06 30.23256 35.12618 2959 ft 179 kts 176°
2026-04-26 12:06 30.22021 35.12736 2955 ft 177 kts 176°
2026-04-26 12:06 30.20792 35.12849 2954 ft 178 kts 177°
2026-04-26 12:06 30.19550 35.12966 2954 ft 180 kts 176°
2026-04-26 12:07 30.18297 35.13085 2955 ft 180 kts 176°
2026-04-26 12:07 30.17047 35.13204 2951 ft 180 kts 176°
2026-04-26 12:07 30.15799 35.13325 2948 ft 179 kts 176°
2026-04-26 12:07 30.14530 35.13448 2641 ft 194 kts 176°
2026-04-26 12:08 30.13172 35.13448 2449 ft 191 kts 185°
2026-04-26 12:08 30.11875 35.13309 2447 ft 185 kts 186°
2026-04-26 12:08 30.10605 35.13165 2437 ft 182 kts 186°
2026-04-26 12:08 30.09350 35.13022 2438 ft 181 kts 187°
2026-04-26 12:09 30.08119 35.12821 2429 ft 176 kts 197°
2026-04-26 12:09 30.07002 35.12241 2435 ft 178 kts 208°
2026-04-26 12:09 30.05905 35.11568 2438 ft 179 kts 208°
2026-04-26 12:09 30.04807 35.10908 2437 ft 177 kts 207°
2026-04-26 12:10 30.03715 35.10263 2433 ft 175 kts 207°
2026-04-26 12:10 30.02639 35.09626 2434 ft 173 kts 207°
2026-04-26 12:10 30.01566 35.08989 2434 ft 174 kts 208°
2026-04-26 12:10 30.00503 35.08356 2436 ft 174 kts 207°
2026-04-26 12:11 29.99416 35.07721 2434 ft 176 kts 205°
2026-04-26 12:11 29.98296 35.07166 2432 ft 175 kts 202°
2026-04-26 12:11 29.97145 35.06732 2430 ft 174 kts 195°
2026-04-26 12:11 29.95957 35.06379 2430 ft 174 kts 195°
2026-04-26 12:12 29.94765 35.06109 2429 ft 176 kts 182°
2026-04-26 12:12 29.93537 35.06179 2431 ft 179 kts 177°
2026-04-26 12:12 29.92306 35.06279 2428 ft 177 kts 177°
2026-04-26 12:12 29.91490 35.06268 2428 ft 177 kts 184°
2026-04-26 12:13 29.89856 35.06092 2434 ft 176 kts 190°
2026-04-26 12:13 29.88679 35.05761 2430 ft 176 kts 196°
2026-04-26 12:13 29.87507 35.05392 2430 ft 174 kts 195°
2026-04-26 12:13 29.86351 35.05022 2431 ft 167 kts 195°
2026-04-26 12:14 29.85296 35.04676 2422 ft 145 kts 196°
2026-04-26 12:14 29.84440 35.04410 2386 ft 123 kts 192°
2026-04-26 12:14 29.83587 35.04214 2218 ft 127 kts 191°
2026-04-26 12:14 29.82724 35.04056 2000 ft 121 kts 186°
2026-04-26 12:15 29.81875 35.03987 1706 ft 120 kts 185°
2026-04-26 12:15 29.81094 35.03798 1527 ft 111 kts 193°
2026-04-26 12:15 29.80422 35.03556 1416 ft 95 kts 196°
2026-04-26 12:15 29.79796 35.03332 1158 ft 92 kts 188°
2026-04-26 12:16 29.79150 35.03194 1056 ft 98 kts 188°
2026-04-26 12:16 29.78485 35.03063 1050 ft 94 kts 188°
2026-04-26 12:16 29.77803 35.02893 886 ft 104 kts 193°
2026-04-26 12:16 29.77123 35.02668 779 ft 97 kts 193°
2026-04-26 12:17 29.76537 35.02503 625 ft 80 kts 190°
2026-04-26 12:17 29.76018 35.02350 565 ft 78 kts 192°
2026-04-26 12:17 29.75498 35.02185 544 ft 74 kts 193°
2026-04-26 12:17 29.75001 35.02039 457 ft 80 kts 192°
2026-04-26 12:18 29.74421 35.01888 361 ft 89 kts 193°
2026-04-26 12:18 29.73823 35.01721 305 ft 87 kts 192°
2026-04-26 12:18 29.73305 35.01572 292 ft 66 kts 192°
2026-04-26 12:18 29.72885 35.01456 292 ft 61 kts 193°
2026-04-26 12:19 29.72454 35.01339 292 ft 56 kts 195°
2026-04-26 12:19 29.72199 35.01251 292 ft 20 kts 218°
2026-04-26 12:19 29.72221 35.01126 292 ft 16 kts 285°
2026-04-26 12:19 29.72215 35.01023 292 ft 15 kts 266°
2026-04-26 12:20 29.72243 35.00881 293 ft 19 kts 282°
2026-04-26 12:20 29.72189 35.00812 294 ft 15 kts 191°
2026-04-26 12:20 29.72108 35.00786 295 ft 8 kts 195°
2026-04-26 12:20 29.72092 35.00782 292 ft 0 kts 192°